Location: �clusier
(49.9361°N, 2.7869°E)
Time: 07:58:28
(UTC+00:00)

Lacrosse 5 rocket - Pass Details

Date: 16 June 2021
Orbit: 460 x 634 km, 57.0° (Epoch: 31 July)

Event Time Altitude Azimuth Distance (km) Brightness Sun altitude
Rises 22:26:42 0° 232° (SW) 2,521 4.5 -14.4°
Reaches altitude 10° 22:28:51 10° 232° (SW) 1,629 3.5 -14.5°
Maximum altitude 22:32:29 82° 146° (SSE) 473 0.8 -14.7°
Drops below altitude 10° 22:36:05 10° 58° (ENE) 1,612 3.9 -14.9°
Sets 22:38:13 0° 58° (ENE) 2,491 4.9 -15.0°
